Regional Weather Roundup
Issued by NWS

Home | Current Version | Previous Version | Text Only | Print | Product List | Glossary Off
Versions: 1 2 3 4 5 6 7 8 9 10 11 12 13 14 15 16 17 18 19 20 21 22 23 24 25 26 27

000
ASUS45 KSLC 231010
RWRUT

UTAH REGIONAL WEATHER ROUNDUP
NATIONAL WEATHER SERVICE SALT LAKE CITY UT
400 AM MDT SUN JUL 23 2017

UTZ001>011-023>025-231100-

NORTHERN UTAH

CITY           SKY/WX    TMP DP  RH WIND       PRES   REMARKS
BRIGHAM CITY   MOCLDY    68  37  32 CALM      30.06F
HILL AFB       PTCLDY    71  39  31 E16       30.08F
LOGAN          MOCLDY    63  46  54 CALM      30.11S
OGDEN          PTCLDY    69  42  37 S6        30.05F
SALT LAKE CITY MOCLDY    73  49  42 SW5       30.04F
TOOELE VALLEY  PTCLDY    64  46  52 S3        30.06F
WENDOVER       MOCLDY    80  34  19 S5        30.06S
HEBER CITY     MOCLDY    57  46  67 CALM      30.18F
WEST JORDAN    PTCLDY    71  49  45 SW5       30.08F

$$

UTZ011>015-024>027-231100-

CENTRAL/NORTHEAST UTAH

CITY           SKY/WX    TMP DP  RH WIND       PRES   REMARKS
PROVO AIRPORT  MOCLDY    70  52  52 CALM      30.09S
MOAB/CANYONLAN CLEAR     71  57  61 SE6       30.06S
DELTA          CLOUDY    73  41  31 N5        30.09S
PRICE          MOCLDY    63  45  51 NE6       30.17S
RICHFIELD      CLEAR     63  54  72 CALM      30.17S
ROOSEVELT      CLOUDY    59  46  63 W5        30.15S
VERNAL         CLOUDY    62  42  47 SW5       30.14F

$$

UTZ013>016-019>022-027-231100-

SOUTHERN UTAH

CITY           SKY/WX    TMP DP  RH WIND       PRES   REMARKS
BRYCE CANYON   MOCLDY    55  48  77 W8        30.33F
CEDAR CITY     MOCLDY    72  46  39 E5        30.14F
MILFORD        CLOUDY    73  46  38 W7        30.10S
ST GEORGE      PTSUNNY   81  50  33 CALM      29.93S
HANKSVILLE     PTCLDY    68  37  32 CALM      30.08S
KANAB          CLEAR     70  50  49 N13       30.13F
BLANDING       PTCLDY    62  52  71 CALM      30.26S

$$

REGIONAL REPORTS     COLORADO/ARIZONA

CITY           SKY/WX    TMP DP  RH WIND       PRES   REMARKS
CRAIG, CO      CLEAR     48  42  80 CALM      30.25S
GRAND JUNCTION PTCLDY    71  50  47 E14       30.12S
RIFLE, CO      CLEAR     60  42  51 SE5       30.21R
MONTROSE, CO   CLOUDY    68  48  48 E17       30.23S
CORTEZ, CO     CLOUDY    56  52  86 NE5       30.21S
COLORADO CITY    N/A     72  54  53 S7        30.11S
PAGE, AZ       CLEAR     78  52  40 S6        30.03F
GRAND CANYON   MOCLDY    66  53  63 NE3       30.22F
KINGMAN, AZ    PTCLDY    72  64  76 SE7       29.97F
FLAGSTAFF, AZ  CLOUDY    61  55  81 CALM      30.26F

$$

REGIONAL REPORTS    NEVADA/IDAHO/WYOMING

CITY           SKY/WX    TMP DP  RH WIND       PRES   REMARKS
LAS VEGAS, NV  CLEAR     92  55  28 SW7       29.83F HX  90
ELY, NY        CLOUDY   N/A N/A N/A SW8       30.23F
ELKO, NV       PTCLDY    67  32  27 E5        30.13F
POCATELLO, ID  CLEAR     59  36  42 S8        30.14S
BURLEY, ID     CLOUDY    63  43  48 S6        30.08F
FORT BRIDGER,    N/A     62  29  27 SW6       30.31F
EVANSTON, WY   CLOUDY    63  33  32 E3        30.30F
ROCK SPRINGS,  CLOUDY    62  29  28 W6        30.26S
KEMMERER, WY     N/A     52  32  46 N10       30.32S

$$




USA.gov is the U.S. government's official web portal to all federal, state and local government web resources and services.